Year,Month,Day,Hour,Minute,Value (Times are PST for temperature in C)
2016,11,08,00,00,11.30
2016,11,08,00,01,11.30
2016,11,08,00,02,11.30
2016,11,08,00,03,11.30
2016,11,08,00,04,11.30
2016,11,08,00,05,11.30
2016,11,08,00,06,11.40
2016,11,08,00,07,11.40
2016,11,08,00,08,11.40
2016,11,08,00,09,11.40
2016,11,08,00,10,11.40
2016,11,08,00,11,11.40
2016,11,08,00,12,11.40
2016,11,08,00,13,11.40
2016,11,08,00,14,11.40
2016,11,08,00,15,11.40
2016,11,08,00,16,11.40
2016,11,08,00,17,11.40
2016,11,08,00,18,11.40
2016,11,08,00,19,11.40
2016,11,08,00,20,11.40
2016,11,08,00,21,11.40
2016,11,08,00,22,11.40
2016,11,08,00,23,11.40
2016,11,08,00,24,11.40
2016,11,08,00,25,11.40
2016,11,08,00,26,11.40
2016,11,08,00,27,11.40
2016,11,08,00,28,11.40
2016,11,08,00,29,11.40
2016,11,08,00,30,11.40
2016,11,08,00,31,11.40
2016,11,08,00,32,11.30
2016,11,08,00,33,11.30
2016,11,08,00,34,11.30
2016,11,08,00,35,11.30
2016,11,08,00,36,11.30
2016,11,08,00,37,11.30
2016,11,08,00,38,11.30
2016,11,08,00,39,11.30
2016,11,08,00,40,11.40
2016,11,08,00,41,11.40
2016,11,08,00,42,11.30
2016,11,08,00,43,11.30
2016,11,08,00,44,11.30
2016,11,08,00,45,11.30
2016,11,08,00,46,11.30
2016,11,08,00,47,11.40
2016,11,08,00,48,11.40
2016,11,08,00,49,11.40
2016,11,08,00,50,11.40
2016,11,08,00,51,11.40
2016,11,08,00,52,11.40
2016,11,08,00,53,11.40
2016,11,08,00,54,11.40
2016,11,08,00,55,11.40
2016,11,08,00,56,11.40
2016,11,08,00,57,11.40
2016,11,08,00,58,11.40
2016,11,08,00,59,11.40
2016,11,08,01,00,11.40
2016,11,08,01,01,11.40
2016,11,08,01,02,11.40
2016,11,08,01,03,11.40
2016,11,08,01,04,11.40
2016,11,08,01,05,11.40
2016,11,08,01,06,11.40
2016,11,08,01,07,11.40
2016,11,08,01,08,11.40
2016,11,08,01,09,11.40
2016,11,08,01,10,11.40
2016,11,08,01,11,11.40
2016,11,08,01,12,11.40
2016,11,08,01,13,11.40
2016,11,08,01,14,11.40
2016,11,08,01,15,11.40
2016,11,08,01,16,11.40
2016,11,08,01,17,11.40
2016,11,08,01,18,11.40
2016,11,08,01,19,11.50
2016,11,08,01,20,11.50
2016,11,08,01,21,11.50
2016,11,08,01,22,11.60
2016,11,08,01,23,11.60
2016,11,08,01,24,11.60
2016,11,08,01,25,11.70
2016,11,08,01,26,11.70
2016,11,08,01,27,11.70
2016,11,08,01,28,11.70
2016,11,08,01,29,11.70
2016,11,08,01,30,11.70
2016,11,08,01,31,11.70
2016,11,08,01,32,11.70
2016,11,08,01,33,11.70
2016,11,08,01,34,11.70
2016,11,08,01,35,11.70
2016,11,08,01,36,11.70
2016,11,08,01,37,11.70
2016,11,08,01,38,11.70
2016,11,08,01,39,11.70
2016,11,08,01,40,11.70
2016,11,08,01,41,11.80
2016,11,08,01,42,11.80
2016,11,08,01,43,11.80
2016,11,08,01,44,11.80
2016,11,08,01,45,11.80
2016,11,08,01,46,11.80
2016,11,08,01,47,11.80
2016,11,08,01,48,11.80
2016,11,08,01,49,11.80
2016,11,08,01,50,11.80
2016,11,08,01,51,11.80
2016,11,08,01,52,11.80
2016,11,08,01,53,11.80
2016,11,08,01,54,11.70
2016,11,08,01,55,11.80
2016,11,08,01,56,11.80
2016,11,08,01,57,11.80
2016,11,08,01,58,11.80
2016,11,08,01,59,11.80
2016,11,08,02,00,11.80
2016,11,08,02,01,11.80
2016,11,08,02,02,11.80
2016,11,08,02,03,11.80
2016,11,08,02,04,11.80
2016,11,08,02,05,11.80
2016,11,08,02,06,11.70
2016,11,08,02,07,11.70
2016,11,08,02,08,11.70
2016,11,08,02,09,11.70
2016,11,08,02,10,11.70
2016,11,08,02,11,11.80
2016,11,08,02,12,11.80
2016,11,08,02,13,11.80
2016,11,08,02,14,11.80
2016,11,08,02,15,11.80
2016,11,08,02,16,11.80
2016,11,08,02,17,11.80
2016,11,08,02,18,11.70
2016,11,08,02,19,11.70
2016,11,08,02,20,11.70
2016,11,08,02,21,11.70
2016,11,08,02,22,11.70
2016,11,08,02,23,11.70
2016,11,08,02,24,11.70
2016,11,08,02,25,11.70
2016,11,08,02,26,11.70
2016,11,08,02,27,11.70
2016,11,08,02,28,11.70
2016,11,08,02,29,11.70
2016,11,08,02,30,11.70
2016,11,08,02,31,11.70
2016,11,08,02,32,11.70
2016,11,08,02,33,11.70
2016,11,08,02,34,11.70
2016,11,08,02,35,11.80
2016,11,08,02,36,11.80
2016,11,08,02,37,11.80
2016,11,08,02,38,11.80
2016,11,08,02,39,11.90
2016,11,08,02,40,11.90
2016,11,08,02,41,11.90
2016,11,08,02,42,11.90
2016,11,08,02,43,11.90
2016,11,08,02,44,11.90
2016,11,08,02,45,11.90
2016,11,08,02,46,11.90
2016,11,08,02,47,11.90
2016,11,08,02,48,11.90
2016,11,08,02,49,11.90
2016,11,08,02,50,12.00
2016,11,08,02,51,12.00
2016,11,08,02,52,12.00
2016,11,08,02,53,12.00
2016,11,08,02,54,12.00
2016,11,08,02,55,12.00
2016,11,08,02,56,12.00
2016,11,08,02,57,12.00
2016,11,08,02,58,12.00
2016,11,08,02,59,12.00
2016,11,08,03,00,12.00
2016,11,08,03,01,12.00
2016,11,08,03,02,12.10
2016,11,08,03,03,12.10
2016,11,08,03,04,12.10
2016,11,08,03,05,12.10
2016,11,08,03,06,12.10
2016,11,08,03,07,12.10
2016,11,08,03,08,12.10
2016,11,08,03,09,12.10
2016,11,08,03,10,12.10
2016,11,08,03,11,12.10
2016,11,08,03,12,12.10
2016,11,08,03,13,12.20
2016,11,08,03,14,12.20
2016,11,08,03,15,12.20
2016,11,08,03,16,12.20
2016,11,08,03,17,12.20
2016,11,08,03,18,12.20
2016,11,08,03,19,12.20
2016,11,08,03,20,12.20
2016,11,08,03,21,12.20
2016,11,08,03,22,12.20
2016,11,08,03,23,12.20
2016,11,08,03,24,12.20
2016,11,08,03,25,12.20
2016,11,08,03,26,12.20
2016,11,08,03,27,12.20
2016,11,08,03,28,12.20
2016,11,08,03,29,12.20
2016,11,08,03,30,12.20
2016,11,08,03,31,12.10
2016,11,08,03,32,12.10
2016,11,08,03,33,12.10
2016,11,08,03,34,12.10
2016,11,08,03,35,12.00
2016,11,08,03,36,12.00
2016,11,08,03,37,12.00
2016,11,08,03,38,12.00
2016,11,08,03,39,11.90
2016,11,08,03,40,11.90
2016,11,08,03,41,11.90
2016,11,08,03,42,11.90
2016,11,08,03,43,11.90
2016,11,08,03,44,11.80
2016,11,08,03,45,11.80
2016,11,08,03,46,11.80
2016,11,08,03,47,11.80
2016,11,08,03,48,11.80
2016,11,08,03,49,11.80
2016,11,08,03,50,11.80
2016,11,08,03,51,11.80
2016,11,08,03,52,11.80
2016,11,08,03,53,11.80
2016,11,08,03,54,11.80
2016,11,08,03,55,11.80
2016,11,08,03,56,11.80
2016,11,08,03,57,11.80
2016,11,08,03,58,11.80
2016,11,08,03,59,11.80
2016,11,08,04,00,11.80
2016,11,08,04,01,11.80
2016,11,08,04,02,11.80
2016,11,08,04,03,11.80
2016,11,08,04,04,11.80
2016,11,08,04,05,11.80
2016,11,08,04,06,11.80
2016,11,08,04,07,11.80
2016,11,08,04,08,11.80
2016,11,08,04,09,11.80
2016,11,08,04,10,11.80
2016,11,08,04,11,11.80
2016,11,08,04,12,11.80
2016,11,08,04,13,11.70
2016,11,08,04,14,11.70
2016,11,08,04,15,11.70
2016,11,08,04,16,11.70
2016,11,08,04,17,11.70
2016,11,08,04,18,11.70
2016,11,08,04,19,11.70
2016,11,08,04,20,11.70
2016,11,08,04,21,11.70
2016,11,08,04,22,11.70
2016,11,08,04,23,11.70
2016,11,08,04,24,11.70
2016,11,08,04,25,11.70
2016,11,08,04,26,11.70
2016,11,08,04,27,11.70
2016,11,08,04,28,11.70
2016,11,08,04,29,11.60
2016,11,08,04,30,11.60
2016,11,08,04,31,11.60
2016,11,08,04,32,11.60
2016,11,08,04,33,11.60
2016,11,08,04,34,11.70
2016,11,08,04,35,11.70
2016,11,08,04,36,11.70
2016,11,08,04,37,11.70
2016,11,08,04,38,11.70
2016,11,08,04,39,11.70
2016,11,08,04,40,11.70
2016,11,08,04,41,11.70
2016,11,08,04,42,11.70
2016,11,08,04,43,11.70
2016,11,08,04,44,11.80
2016,11,08,04,45,11.80
2016,11,08,04,46,11.80
2016,11,08,04,47,11.80
2016,11,08,04,48,11.80
2016,11,08,04,49,11.80
2016,11,08,04,50,11.80
2016,11,08,04,51,11.80
2016,11,08,04,52,11.80
2016,11,08,04,53,11.80
2016,11,08,04,54,11.80
2016,11,08,04,55,11.80
2016,11,08,04,56,11.80
2016,11,08,04,57,11.80
2016,11,08,04,58,11.80
2016,11,08,04,59,11.80
2016,11,08,05,00,11.80
2016,11,08,05,01,11.80
2016,11,08,05,02,11.80
2016,11,08,05,03,11.80
2016,11,08,05,04,11.80
2016,11,08,05,05,11.80
2016,11,08,05,06,11.80
2016,11,08,05,07,11.80
2016,11,08,05,08,11.80
2016,11,08,05,09,11.80
2016,11,08,05,10,11.80
2016,11,08,05,11,11.80
2016,11,08,05,12,11.80
2016,11,08,05,13,11.80
2016,11,08,05,14,11.80
2016,11,08,05,15,11.80
2016,11,08,05,16,11.80
2016,11,08,05,17,11.80
2016,11,08,05,18,11.80
2016,11,08,05,19,11.80
2016,11,08,05,20,11.80
2016,11,08,05,21,11.80
2016,11,08,05,22,11.80
2016,11,08,05,23,11.80
2016,11,08,05,24,11.80
2016,11,08,05,25,11.80
2016,11,08,05,26,11.80
2016,11,08,05,27,11.80
2016,11,08,05,28,11.80
2016,11,08,05,29,11.80
2016,11,08,05,30,11.80
2016,11,08,05,31,11.80
2016,11,08,05,32,11.80
2016,11,08,05,33,11.80
2016,11,08,05,34,11.80
2016,11,08,05,35,11.80
2016,11,08,05,36,11.80
2016,11,08,05,37,11.80
2016,11,08,05,38,11.80
2016,11,08,05,39,11.80
2016,11,08,05,40,11.90
2016,11,08,05,41,11.90
2016,11,08,05,42,11.90
2016,11,08,05,43,11.90
2016,11,08,05,44,11.90
2016,11,08,05,45,11.90
2016,11,08,05,46,11.90
2016,11,08,05,47,11.90
2016,11,08,05,48,11.90
2016,11,08,05,49,11.90
2016,11,08,05,50,11.90
2016,11,08,05,51,11.90
2016,11,08,05,52,11.90
2016,11,08,05,53,11.90
2016,11,08,05,54,11.90
2016,11,08,05,55,11.90
2016,11,08,05,56,11.90
2016,11,08,05,57,11.90
2016,11,08,05,58,11.90
2016,11,08,05,59,11.90
2016,11,08,06,00,11.90
2016,11,08,06,01,11.90
2016,11,08,06,02,11.90
2016,11,08,06,03,11.90
2016,11,08,06,04,11.90
2016,11,08,06,05,11.90
2016,11,08,06,06,11.90
2016,11,08,06,07,11.90
2016,11,08,06,08,11.90
2016,11,08,06,09,11.90
2016,11,08,06,10,11.90
2016,11,08,06,11,11.90
2016,11,08,06,12,11.90
2016,11,08,06,13,11.90
2016,11,08,06,14,11.90
2016,11,08,06,15,11.90
2016,11,08,06,16,11.90
2016,11,08,06,17,11.90
2016,11,08,06,18,11.90
2016,11,08,06,19,11.90
2016,11,08,06,20,11.80
2016,11,08,06,21,11.90
2016,11,08,06,22,11.80
2016,11,08,06,23,11.80
2016,11,08,06,24,11.80
2016,11,08,06,25,11.80
2016,11,08,06,26,11.80
2016,11,08,06,27,11.80
2016,11,08,06,28,11.80
2016,11,08,06,29,11.80
2016,11,08,06,30,11.80
2016,11,08,06,31,11.80
2016,11,08,06,32,11.80
2016,11,08,06,33,11.80
2016,11,08,06,34,11.80
2016,11,08,06,35,11.80
2016,11,08,06,36,11.80
2016,11,08,06,37,11.80
2016,11,08,06,38,11.80
2016,11,08,06,39,11.80
2016,11,08,06,40,11.80
2016,11,08,06,41,11.80
2016,11,08,06,42,11.80
2016,11,08,06,43,11.80
2016,11,08,06,44,11.80
2016,11,08,06,45,11.80
2016,11,08,06,46,11.80
2016,11,08,06,47,11.80
2016,11,08,06,48,11.80
2016,11,08,06,49,11.80
2016,11,08,06,50,11.80
2016,11,08,06,51,11.80
2016,11,08,06,52,11.80
2016,11,08,06,53,11.80
2016,11,08,06,54,11.80
2016,11,08,06,55,11.80
2016,11,08,06,56,11.80
2016,11,08,06,57,11.80
2016,11,08,06,58,11.80
2016,11,08,06,59,11.80
2016,11,08,07,00,11.80
2016,11,08,07,01,11.80
2016,11,08,07,02,11.80
2016,11,08,07,03,11.80
2016,11,08,07,04,11.80
2016,11,08,07,05,11.80
2016,11,08,07,06,11.80
2016,11,08,07,07,11.80
2016,11,08,07,08,11.80
2016,11,08,07,09,11.80
2016,11,08,07,10,11.80
2016,11,08,07,11,11.80
2016,11,08,07,12,11.80
2016,11,08,07,13,11.90
2016,11,08,07,14,11.90
2016,11,08,07,15,11.90
2016,11,08,07,16,11.90
2016,11,08,07,17,11.90
2016,11,08,07,18,11.90
2016,11,08,07,19,11.90
2016,11,08,07,20,11.90
2016,11,08,07,21,11.90
2016,11,08,07,22,11.90
2016,11,08,07,23,11.90
2016,11,08,07,24,11.90
2016,11,08,07,25,11.90
2016,11,08,07,26,12.00
2016,11,08,07,27,12.00
2016,11,08,07,28,12.00
2016,11,08,07,29,12.00
2016,11,08,07,30,12.00
2016,11,08,07,31,12.00
2016,11,08,07,32,12.00
2016,11,08,07,33,12.00
2016,11,08,07,34,12.10
2016,11,08,07,35,12.10
2016,11,08,07,36,12.10
2016,11,08,07,37,12.10
2016,11,08,07,38,12.10
2016,11,08,07,39,12.10
2016,11,08,07,40,12.10
2016,11,08,07,41,12.10
2016,11,08,07,42,12.10
2016,11,08,07,43,12.10
2016,11,08,07,44,12.10
2016,11,08,07,45,12.10
2016,11,08,07,46,12.10
2016,11,08,07,47,12.10
2016,11,08,07,48,12.10
2016,11,08,07,49,12.20
2016,11,08,07,50,12.20
2016,11,08,07,51,12.20
2016,11,08,07,52,12.20
2016,11,08,07,53,12.20
2016,11,08,07,54,12.20
2016,11,08,07,55,12.20
2016,11,08,07,56,12.20
2016,11,08,07,57,12.20
2016,11,08,07,58,12.20
2016,11,08,07,59,12.20
2016,11,08,08,00,12.20
2016,11,08,08,01,12.20
2016,11,08,08,02,12.30
2016,11,08,08,03,12.30
2016,11,08,08,04,12.30
2016,11,08,08,05,12.30
2016,11,08,08,06,12.30
2016,11,08,08,07,12.30
2016,11,08,08,08,12.30
2016,11,08,08,09,12.30
2016,11,08,08,10,12.30
2016,11,08,08,11,12.40
2016,11,08,08,12,12.40
2016,11,08,08,13,12.40
2016,11,08,08,14,12.40
2016,11,08,08,15,12.40
2016,11,08,08,16,12.40
2016,11,08,08,17,12.40
2016,11,08,08,18,12.40
2016,11,08,08,19,12.40
2016,11,08,08,20,12.50
2016,11,08,08,21,12.50
2016,11,08,08,22,12.50
2016,11,08,08,23,12.50
2016,11,08,08,24,12.60
2016,11,08,08,25,12.60
2016,11,08,08,26,12.60
2016,11,08,08,27,12.60
2016,11,08,08,28,12.60
2016,11,08,08,29,12.60
2016,11,08,08,30,12.60
2016,11,08,08,31,12.70
2016,11,08,08,32,12.70
2016,11,08,08,33,12.70
2016,11,08,08,34,12.70
2016,11,08,08,35,12.70
2016,11,08,08,36,12.70
2016,11,08,08,37,12.70
2016,11,08,08,38,12.80
2016,11,08,08,39,12.80
2016,11,08,08,40,12.80
2016,11,08,08,41,12.80
2016,11,08,08,42,12.80
2016,11,08,08,43,12.80
2016,11,08,08,44,12.80
2016,11,08,08,45,12.80
2016,11,08,08,46,12.80
2016,11,08,08,47,12.80
2016,11,08,08,48,12.80
2016,11,08,08,49,12.80
2016,11,08,08,50,12.80
2016,11,08,08,51,12.80
2016,11,08,08,52,12.80
2016,11,08,08,53,12.80
2016,11,08,08,54,12.80
2016,11,08,08,55,12.80
2016,11,08,08,56,12.80
2016,11,08,08,57,12.80
2016,11,08,08,58,12.90
2016,11,08,08,59,12.90
2016,11,08,09,00,12.90
2016,11,08,09,01,12.90
2016,11,08,09,02,12.90
2016,11,08,09,03,12.90
2016,11,08,09,04,12.90
2016,11,08,09,05,12.90
2016,11,08,09,06,12.90
2016,11,08,09,07,12.90
2016,11,08,09,08,12.90
2016,11,08,09,09,12.90
2016,11,08,09,10,12.90
2016,11,08,09,11,12.90
2016,11,08,09,12,12.90
2016,11,08,09,13,12.90
2016,11,08,09,14,12.90
2016,11,08,09,15,12.90
2016,11,08,09,16,12.90
2016,11,08,09,17,12.90
2016,11,08,09,18,12.90
2016,11,08,09,19,12.90
2016,11,08,09,20,12.90
2016,11,08,09,21,12.90
2016,11,08,09,22,12.80
2016,11,08,09,23,12.80
2016,11,08,09,24,12.80
2016,11,08,09,25,12.80
2016,11,08,09,26,12.80
2016,11,08,09,27,12.80
2016,11,08,09,28,12.80
2016,11,08,09,29,12.80
2016,11,08,09,30,12.80
2016,11,08,09,31,12.80
2016,11,08,09,32,12.80
2016,11,08,09,33,12.80
2016,11,08,09,34,12.80
2016,11,08,09,35,12.80
2016,11,08,09,36,12.80
2016,11,08,09,37,12.80
2016,11,08,09,38,12.80
2016,11,08,09,39,12.80
2016,11,08,09,40,12.90
2016,11,08,09,41,12.80
2016,11,08,09,42,12.90
2016,11,08,09,43,12.90
2016,11,08,09,44,12.90
2016,11,08,09,45,12.90
2016,11,08,09,46,12.90
2016,11,08,09,47,12.90
2016,11,08,09,48,12.90
2016,11,08,09,49,12.90
2016,11,08,09,50,12.80
2016,11,08,09,51,12.80
2016,11,08,09,52,12.80
2016,11,08,09,53,12.80
2016,11,08,09,54,12.80
2016,11,08,09,55,12.80
2016,11,08,09,56,12.80
2016,11,08,09,57,12.80
2016,11,08,09,58,12.80
2016,11,08,09,59,12.80
2016,11,08,10,00,12.80
2016,11,08,10,01,12.80
2016,11,08,10,02,12.80
2016,11,08,10,03,12.80
2016,11,08,10,04,12.80
2016,11,08,10,05,12.80
2016,11,08,10,06,12.80
2016,11,08,10,07,12.80
2016,11,08,10,08,12.80
2016,11,08,10,09,12.80
2016,11,08,10,10,12.90
2016,11,08,10,11,12.90
2016,11,08,10,12,12.90
2016,11,08,10,13,12.90
2016,11,08,10,14,13.00
2016,11,08,10,15,13.00
2016,11,08,10,16,13.10
2016,11,08,10,17,13.10
2016,11,08,10,18,13.10
2016,11,08,10,19,13.20
2016,11,08,10,20,13.20
2016,11,08,10,21,13.20
2016,11,08,10,22,13.30
2016,11,08,10,23,13.30
2016,11,08,10,24,13.40
2016,11,08,10,25,13.40
2016,11,08,10,26,13.40
2016,11,08,10,27,13.60
2016,11,08,10,28,13.60
2016,11,08,10,29,13.60
2016,11,08,10,30,13.70
2016,11,08,10,31,13.70
2016,11,08,10,32,13.80
2016,11,08,10,33,13.90
2016,11,08,10,34,14.00
2016,11,08,10,35,14.00
2016,11,08,10,36,14.20
2016,11,08,10,37,14.20
2016,11,08,10,38,14.30
2016,11,08,10,39,14.30
2016,11,08,10,40,14.30
2016,11,08,10,41,14.30
2016,11,08,10,42,14.30
2016,11,08,10,43,14.30
2016,11,08,10,44,14.30
2016,11,08,10,45,14.30
2016,11,08,10,46,14.30
2016,11,08,10,47,14.30
2016,11,08,10,48,14.30
2016,11,08,10,49,14.30
2016,11,08,10,50,14.30
2016,11,08,12,15,18.30
2016,11,08,12,16,18.30
2016,11,08,12,17,18.30
2016,11,08,12,18,18.30
2016,11,08,12,19,18.20
2016,11,08,12,20,18.30
2016,11,08,12,21,18.30
2016,11,08,12,22,18.30
2016,11,08,12,23,18.30
2016,11,08,12,24,18.30
2016,11,08,12,25,18.30
2016,11,08,12,26,18.30
2016,11,08,12,27,18.20
2016,11,08,12,28,18.20
2016,11,08,12,29,18.20
2016,11,08,12,30,18.20
2016,11,08,12,31,18.20
2016,11,08,12,32,18.20
2016,11,08,12,33,18.20
2016,11,08,12,34,18.20
2016,11,08,12,35,18.20
2016,11,08,12,36,18.30
2016,11,08,12,37,18.30
2016,11,08,12,38,18.30
2016,11,08,12,39,18.40
2016,11,08,12,40,18.40
2016,11,08,12,41,18.40
2016,11,08,12,42,18.40
2016,11,08,12,43,18.30
2016,11,08,12,44,18.30
2016,11,08,12,45,18.30
2016,11,08,12,46,18.20
2016,11,08,12,47,18.20
2016,11,08,12,48,18.10
2016,11,08,12,49,18.10
2016,11,08,12,50,18.10
2016,11,08,12,51,18.10
2016,11,08,12,52,18.10
2016,11,08,12,53,18.10
2016,11,08,12,54,18.10
2016,11,08,12,55,18.00
2016,11,08,12,56,18.00
2016,11,08,12,57,17.90
2016,11,08,12,58,18.00
2016,11,08,12,59,18.00
2016,11,08,13,00,18.00
2016,11,08,13,01,18.00
2016,11,08,13,02,18.00
2016,11,08,13,03,18.00
2016,11,08,13,04,18.00
2016,11,08,13,05,18.00
2016,11,08,13,06,18.00
2016,11,08,13,07,18.00
2016,11,08,13,08,17.90
2016,11,08,13,09,17.90
2016,11,08,13,10,17.90
2016,11,08,13,11,17.90
2016,11,08,13,12,17.90
2016,11,08,13,13,17.90
2016,11,08,13,14,18.00
2016,11,08,13,15,18.00
2016,11,08,13,16,18.00
2016,11,08,13,17,18.00
2016,11,08,13,18,18.00
2016,11,08,13,19,18.00
2016,11,08,13,20,18.00
2016,11,08,13,21,17.90
2016,11,08,13,22,17.90
2016,11,08,13,23,18.00
2016,11,08,13,24,18.00
2016,11,08,13,25,18.00
2016,11,08,13,26,18.10
2016,11,08,13,27,18.10
2016,11,08,13,28,18.10
2016,11,08,13,29,18.10
2016,11,08,13,30,18.10
2016,11,08,13,31,18.10
2016,11,08,13,32,18.10
2016,11,08,13,33,18.00
2016,11,08,13,34,18.00
2016,11,08,13,35,18.00
2016,11,08,13,36,18.00
2016,11,08,13,37,18.10
2016,11,08,13,38,18.00
2016,11,08,13,39,18.00
2016,11,08,13,40,17.80
2016,11,08,13,41,17.60
2016,11,08,13,42,17.50
2016,11,08,13,43,17.50
2016,11,08,13,44,17.50
2016,11,08,13,45,17.50
2016,11,08,13,46,17.50
2016,11,08,13,47,17.60
2016,11,08,13,48,17.60
2016,11,08,13,49,17.60
2016,11,08,13,50,17.50
2016,11,08,13,51,17.50
2016,11,08,13,52,17.50
2016,11,08,13,53,17.50
2016,11,08,13,54,17.40
2016,11,08,13,55,17.40
2016,11,08,13,56,17.40
2016,11,08,13,57,17.40
2016,11,08,13,58,17.30
2016,11,08,13,59,17.30
2016,11,08,14,00,17.30
2016,11,08,14,01,17.30
2016,11,08,14,02,17.30
2016,11,08,14,03,17.20
2016,11,08,14,04,17.20
2016,11,08,14,05,17.20
2016,11,08,14,06,17.20
2016,11,08,14,07,17.10
2016,11,08,14,08,17.00
2016,11,08,14,09,16.90
2016,11,08,14,10,16.90
2016,11,08,14,11,16.80
2016,11,08,14,12,16.70
2016,11,08,14,13,16.60
2016,11,08,14,14,16.60
2016,11,08,14,15,16.50
2016,11,08,14,16,16.40
2016,11,08,14,17,16.30
2016,11,08,14,18,16.30
2016,11,08,14,19,16.20
2016,11,08,14,20,16.20
2016,11,08,14,21,16.10
2016,11,08,14,22,16.10
2016,11,08,14,23,16.10
2016,11,08,14,24,16.00
2016,11,08,14,25,16.00
2016,11,08,14,26,16.00
2016,11,08,14,27,15.90
2016,11,08,14,28,15.90
2016,11,08,14,29,15.90
2016,11,08,14,30,15.90
2016,11,08,14,31,15.90
2016,11,08,14,32,15.80
2016,11,08,14,33,15.80
2016,11,08,14,34,15.80
2016,11,08,14,35,15.80
2016,11,08,14,36,15.80
2016,11,08,14,37,15.80
2016,11,08,14,38,15.80
2016,11,08,14,39,15.80
2016,11,08,14,40,15.80
2016,11,08,14,41,15.70
2016,11,08,14,42,15.70
2016,11,08,14,43,15.70
2016,11,08,14,44,15.70
2016,11,08,14,45,15.70
2016,11,08,14,46,15.70
2016,11,08,14,47,15.70
2016,11,08,14,48,15.60
2016,11,08,14,49,15.60
2016,11,08,14,50,15.50
2016,11,08,14,51,15.50
2016,11,08,14,52,15.40
2016,11,08,14,53,15.40
2016,11,08,14,54,15.30
2016,11,08,14,55,15.30
2016,11,08,14,56,15.20
2016,11,08,14,57,15.10
2016,11,08,14,58,15.00
2016,11,08,14,59,14.90
2016,11,08,15,00,14.90
2016,11,08,15,01,14.80
2016,11,08,15,02,14.70
2016,11,08,15,03,14.70
2016,11,08,15,04,14.60
2016,11,08,15,05,14.50
2016,11,08,15,06,14.50
2016,11,08,15,07,14.40
2016,11,08,15,08,14.40
2016,11,08,15,09,14.30
2016,11,08,15,10,14.30
2016,11,08,15,11,14.20
2016,11,08,15,12,14.20
2016,11,08,15,13,14.20
2016,11,08,15,14,14.10
2016,11,08,15,15,14.10
2016,11,08,15,16,14.10
2016,11,08,15,17,14.10
2016,11,08,15,18,14.00
2016,11,08,15,19,14.00
2016,11,08,15,20,14.00
2016,11,08,15,21,14.00
2016,11,08,15,22,14.00
2016,11,08,15,23,13.90
2016,11,08,15,24,13.90
2016,11,08,15,25,13.90
2016,11,08,15,26,13.90
2016,11,08,15,27,13.90
2016,11,08,15,28,13.90
2016,11,08,15,29,13.90
2016,11,08,15,30,13.90
2016,11,08,15,31,13.90
2016,11,08,15,32,13.80
2016,11,08,15,33,13.80
2016,11,08,15,34,13.80
2016,11,08,15,35,13.80
2016,11,08,15,36,13.80
2016,11,08,15,37,13.80
2016,11,08,15,38,13.80
2016,11,08,15,39,13.80
2016,11,08,15,40,13.80
2016,11,08,15,41,13.80
2016,11,08,15,42,13.80
2016,11,08,15,43,13.80
2016,11,08,15,44,13.80
2016,11,08,15,45,13.70
2016,11,08,15,46,13.70
2016,11,08,15,47,13.70
2016,11,08,15,48,13.70
2016,11,08,15,49,13.70
2016,11,08,15,50,13.70
2016,11,08,15,51,13.70
2016,11,08,15,52,13.70
2016,11,08,15,53,13.70
2016,11,08,15,54,13.60
2016,11,08,15,55,13.60
2016,11,08,15,56,13.60
2016,11,08,15,57,13.60
2016,11,08,15,58,13.60
2016,11,08,15,59,13.60
2016,11,08,16,00,13.60
2016,11,08,16,01,13.60
2016,11,08,16,02,13.60
2016,11,08,16,03,13.60
2016,11,08,16,04,13.60
2016,11,08,16,05,13.60
2016,11,08,16,06,13.60
2016,11,08,16,07,13.60
2016,11,08,16,08,13.60
2016,11,08,16,09,13.60
2016,11,08,16,10,13.60
2016,11,08,16,11,13.60
2016,11,08,16,12,13.60
2016,11,08,16,13,13.60
2016,11,08,16,14,13.60
2016,11,08,16,15,13.60
2016,11,08,16,16,13.60
2016,11,08,16,17,13.60
2016,11,08,16,18,13.60
2016,11,08,16,19,13.60
2016,11,08,16,53,13.20
2016,11,08,16,54,13.20
2016,11,08,16,55,13.20
2016,11,08,16,56,13.20
2016,11,08,16,57,13.20
2016,11,08,16,58,13.20
2016,11,08,16,59,13.20
2016,11,08,17,00,13.20
2016,11,08,17,01,13.20
2016,11,08,17,02,13.20
2016,11,08,17,03,13.20
2016,11,08,17,04,13.20
2016,11,08,17,05,13.20
2016,11,08,17,06,13.20
2016,11,08,17,07,13.20
2016,11,08,17,08,13.20
2016,11,08,17,09,13.20
2016,11,08,17,10,13.20
2016,11,08,17,11,13.20
2016,11,08,17,12,13.20
2016,11,08,17,13,13.20
2016,11,08,17,14,13.20
2016,11,08,17,15,13.20
2016,11,08,17,16,13.20
2016,11,08,17,17,13.20
2016,11,08,17,18,13.20
2016,11,08,17,19,13.20
2016,11,08,17,20,13.20
2016,11,08,17,21,13.20
2016,11,08,17,22,13.20
2016,11,08,17,23,13.20
2016,11,08,17,24,13.20
2016,11,08,17,25,13.20
2016,11,08,17,26,13.20
2016,11,08,17,27,13.20
2016,11,08,17,28,13.20
2016,11,08,17,29,13.20
2016,11,08,17,30,13.20
2016,11,08,17,31,13.20
2016,11,08,17,32,13.20
2016,11,08,17,33,13.20
2016,11,08,17,34,13.20
2016,11,08,17,35,13.20
2016,11,08,17,36,13.20
2016,11,08,17,37,13.20
2016,11,08,17,38,13.20
2016,11,08,17,39,13.20
2016,11,08,17,40,13.20
2016,11,08,17,41,13.20
2016,11,08,17,42,13.20
2016,11,08,17,43,13.20
2016,11,08,17,44,13.20
2016,11,08,17,45,13.20
2016,11,08,17,46,13.20
2016,11,08,17,47,13.20
2016,11,08,17,48,13.20
2016,11,08,17,49,13.20
2016,11,08,17,50,13.20
2016,11,08,17,51,13.20
2016,11,08,17,52,13.20
2016,11,08,17,53,13.20
2016,11,08,17,54,13.20
2016,11,08,17,55,13.20
2016,11,08,17,56,13.20
2016,11,08,17,57,13.20
2016,11,08,17,58,13.20
2016,11,08,17,59,13.20
2016,11,08,18,00,13.20
2016,11,08,18,01,13.20
2016,11,08,18,02,13.20
2016,11,08,18,03,13.20
2016,11,08,18,04,13.20
2016,11,08,18,05,13.20
2016,11,08,18,06,13.20
2016,11,08,18,07,13.20
2016,11,08,18,08,13.20
2016,11,08,18,09,13.20
2016,11,08,18,10,13.20
2016,11,08,18,11,13.20
2016,11,08,18,12,13.20
2016,11,08,18,13,13.20
2016,11,08,18,14,13.20
2016,11,08,18,15,13.20
2016,11,08,18,16,13.20
2016,11,08,18,17,13.20
2016,11,08,18,18,13.20
2016,11,08,18,19,13.20
2016,11,08,18,20,13.20
2016,11,08,18,21,13.20
2016,11,08,18,22,13.20
2016,11,08,18,23,13.20
2016,11,08,18,24,13.20
2016,11,08,18,25,13.20
2016,11,08,18,26,13.20
2016,11,08,18,27,13.20
2016,11,08,18,28,13.20
2016,11,08,18,29,13.20
2016,11,08,18,30,13.20
2016,11,08,18,31,13.20
2016,11,08,18,32,13.20
2016,11,08,18,33,13.10
2016,11,08,18,34,13.10
2016,11,08,18,35,13.20
2016,11,08,18,36,13.10
2016,11,08,18,37,13.10
2016,11,08,18,38,13.10
2016,11,08,18,39,13.10
2016,11,08,18,40,13.10
2016,11,08,18,41,13.10
2016,11,08,18,42,13.10
2016,11,08,18,43,13.10
2016,11,08,18,44,13.10
2016,11,08,18,45,13.10
2016,11,08,18,46,13.10
2016,11,08,18,47,13.10
2016,11,08,18,48,13.10
2016,11,08,18,49,13.10
2016,11,08,18,50,13.10
2016,11,08,18,51,13.10
2016,11,08,18,52,13.10
2016,11,08,18,53,13.10
2016,11,08,18,54,13.10
2016,11,08,18,55,13.10
2016,11,08,18,56,13.10
2016,11,08,18,57,13.10
2016,11,08,18,58,13.10
2016,11,08,18,59,13.10
2016,11,08,19,00,13.10
2016,11,08,19,01,13.10
2016,11,08,19,02,13.10
2016,11,08,19,03,13.10
2016,11,08,19,04,13.10
2016,11,08,19,05,13.10
2016,11,08,19,06,13.10
2016,11,08,19,07,13.20
2016,11,08,19,08,13.20
2016,11,08,19,09,13.20
2016,11,08,19,10,13.20
2016,11,08,19,11,13.20
2016,11,08,19,12,13.20
2016,11,08,19,13,13.20
2016,11,08,19,14,13.20
2016,11,08,19,15,13.20
2016,11,08,19,16,13.20